Wetterstats.de || Aktuelle Messwerte || Aktuelle Wetterkarten NEU! || Radar / Satellit NEU! || Wetterarchiv || Langzeitwerte NEU! || Klim. Kenntage || Met. Ereignisse || Agrarwerte || Echtzeitwerte

Monatsübersicht für Januar 2020 Diagramm
 
Wetter Information zur Wetteranzeige
Zeitraffer
Tageslänge (hh:mm)
Höchsttemperatur in °C
Uhrzeit
Tiefsttemperatur in °C
Uhrzeit
Luftfeuchte (max., in %)
Uhrzeit
Luftfeuchte (min., in %)
Uhrzeit
Luftdruck (max., in hPa)
Uhrzeit
Luftdruck (min., in hPa)
Uhrzeit
Luftdruck (Ø, in hPa)
Regenrate (max, mm/h)
Uhrzeit
Niederschlag in mm
Verdunstung in mm
Solar in W/m² (Ø)
Solar in W/m² (max.)
UV-Index (max.)
Sonnenscheindauer (hh:mm)
Windrichtung (Ø)
Windstärke (Ø in km/h)
Windstärke (Ø in bft)
Windböe (max., in km/h)
Uhrzeit
Windböe (max., in bft)
Uhrzeit
Taupunkt (max., in °C)
Uhrzeit
Taupunkt (min., in °C)
Uhrzeit
Windchill (min., in °C)
Uhrzeit
Gewitterindex (max.)
Uhrzeit
Waldbrandindex (max.)
Uhrzeit
Graslandfeuerindex (max.)
Uhrzeit
Staubsturm-Index (max.)
Uhrzeit
01
Zeitraffer
07:50
5.2
14:35 Uhr
-0.2
23:50 Uhr

94
09:00 Uhr
80
00:00 Uhr
1033.4
09:45 Uhr

1028.9
22:55 Uhr
1031.6
0,000
00:00 Uhr
0,000
0.127
41
91
11:25 Uhr
0.0
00:00 Uhr

00:00:00
0,1
0
6,4
05:35 Uhr

1
2.4
14:35 Uhr
-1.8
23:50 Uhr
-0.2
23:50 Uhr
0
00:00 Uhr
0.0
00:00 Uhr
0.0
00:00 Uhr
0.0
00:00 Uhr
02
Zeitraffer
07:51
7.0
14:50 Uhr
-2.0
08:35 Uhr

92
04:25 Uhr
48
14:50 Uhr
1029.2
00:00 Uhr

1022.2
23:35 Uhr
1025.3
0,000
00:00 Uhr
0,000
0.381
75
195
11:35 Uhr
0.0
00:00 Uhr

03:31:00
0,2
0
8,0
12:55 Uhr

2
-0.7
23:25 Uhr
-3.7
16:40 Uhr
-2.0
08:35 Uhr
0
00:00 Uhr
0.0
00:00 Uhr
0.0
00:00 Uhr
0.0
00:00 Uhr
03
Zeitraffer
07:52
6.9
21:35 Uhr
2.1
00:00 Uhr

96
21:35 Uhr
81
00:00 Uhr
1022.1
00:00 Uhr

1012.5
19:55 Uhr
1016.2
2,400
16:40 Uhr
2,800
0.051
16
44
13:00 Uhr
0.0
00:00 Uhr

00:00:00
1,0
0
11,3
02:15 Uhr

2
6.3
21:35 Uhr
-0.9
00:00 Uhr
2.1
00:00 Uhr
0
00:00 Uhr
0.0
00:00 Uhr
0.0
00:00 Uhr
0.0
00:00 Uhr
04
Zeitraffer
07:53
5.6
13:35 Uhr
1.8
23:50 Uhr

94
01:40 Uhr
83
19:20 Uhr
1025.6
23:50 Uhr

1013.7
14:00 Uhr
1018.6
2,400
11:55 Uhr
1,400
0.025
14
46
10:50 Uhr
0.0
00:00 Uhr

00:00:00
1,0
0
11,3
11:10 Uhr

2
4.4
13:35 Uhr
-0.1
22:55 Uhr
1.8
23:50 Uhr
0
00:00 Uhr
0.0
00:00 Uhr
0.0
00:00 Uhr
0.0
00:00 Uhr
05
Zeitraffer
07:54
3.9
14:15 Uhr
-1.0
07:50 Uhr

94
09:05 Uhr
81
14:25 Uhr
1033.0
09:50 Uhr

1025.7
00:00 Uhr
1030.9
0,000
00:00 Uhr
0,000
0.152
56
142
10:45 Uhr
0.0
00:00 Uhr

01:16:00
0,2
0
6,4
00:05 Uhr

1
2.0
23:50 Uhr
-2.1
07:35 Uhr
-1.0
07:50 Uhr
0
00:00 Uhr
0.0
00:00 Uhr
0.0
00:00 Uhr
0.0
00:00 Uhr
06
Zeitraffer
07:57
7.3
13:45 Uhr
3.7
00:00 Uhr

90
00:25 Uhr
76
22:15 Uhr
1030.1
00:00 Uhr

1020.0
23:50 Uhr
1025.7
0,000
00:00 Uhr
0,000
0.229
54
174
11:55 Uhr
0.0
00:00 Uhr

00:23:00
0,2
0
8,0
18:50 Uhr

2
4.0
12:15 Uhr
1.1
22:55 Uhr
3.7
00:00 Uhr
0
00:00 Uhr
0.0
00:00 Uhr
0.0
00:00 Uhr
0.0
00:00 Uhr
07
Zeitraffer
07:58
5.7
22:00 Uhr
0.5
05:55 Uhr

95
14:40 Uhr
80
00:00 Uhr
1026.5
17:50 Uhr

1018.9
02:25 Uhr
1023.0
2,400
12:10 Uhr
0,200
0.000
18
39
11:45 Uhr
0.0
00:00 Uhr

00:00:00
0,3
0
11,3
00:05 Uhr

2
4.6
19:05 Uhr
-1.1
05:55 Uhr
0.5
05:55 Uhr
0
00:00 Uhr
0.0
00:00 Uhr
0.0
00:00 Uhr
0.0
00:00 Uhr
08
Zeitraffer
08:00
8.6
20:00 Uhr
3.9
00:35 Uhr

91
10:45 Uhr
84
08:05 Uhr
1024.9
00:00 Uhr

1019.9
14:55 Uhr
1021.5
0,000
00:00 Uhr
0,000
0.000
15
58
11:00 Uhr
0.0
00:00 Uhr

00:00:00
0,9
0
14,5
00:05 Uhr

3
7.1
20:05 Uhr
2.2
02:40 Uhr
3.9
00:35 Uhr
0
00:00 Uhr
0.0
00:00 Uhr
0.0
00:00 Uhr
0.0
00:00 Uhr
09
Zeitraffer
08:02
10.0
23:45 Uhr
7.7
04:25 Uhr

96
05:05 Uhr
91
00:00 Uhr
1022.1
00:00 Uhr

1010.0
23:30 Uhr
1015.6
2,400
02:05 Uhr
2,200
0.076
22
70
12:15 Uhr
0.0
00:00 Uhr

00:00:00
1,0
0
17,7
11:45 Uhr

3
9.4
23:45 Uhr
7.0
00:55 Uhr
7.3
10:50 Uhr
2
18:10 Uhr
0.0
00:00 Uhr
0.0
00:00 Uhr
0.0
00:00 Uhr
10
Zeitraffer
08:04
11.3
14:30 Uhr
5.9
23:55 Uhr

97
05:00 Uhr
77
14:45 Uhr
1022.0
23:55 Uhr

1009.3
04:35 Uhr
1012.9
2,400
02:35 Uhr
2,000
0.178
37
204
12:20 Uhr
0.0
00:00 Uhr

00:21:00
0,7
0
9,7
20:45 Uhr

2
9.7
02:15 Uhr
3.8
23:50 Uhr
5.9
23:55 Uhr
2
00:00 Uhr
0.0
00:00 Uhr
0.0
00:00 Uhr
0.0
00:00 Uhr
11
Zeitraffer
08:06
7.1
13:40 Uhr
3.5
23:15 Uhr

92
01:35 Uhr
75
12:40 Uhr
1030.5
11:15 Uhr

1022.1
00:00 Uhr
1027.4
2,400
01:35 Uhr
0,200
0.127
40
100
10:30 Uhr
0.0
00:00 Uhr

00:01:00
0,6
0
8,0
00:20 Uhr

2
3.7
00:00 Uhr
0.7
23:15 Uhr
3.5
23:15 Uhr
0
00:00 Uhr
0.0
00:00 Uhr
0.0
00:00 Uhr
0.0
00:00 Uhr
12
Zeitraffer
08:08
6.6
23:50 Uhr
2.0
07:30 Uhr

85
07:50 Uhr
71
12:20 Uhr
1025.4
00:00 Uhr

1017.2
16:10 Uhr
1020.0
0,000
00:00 Uhr
0,000
0.279
69
260
12:15 Uhr
0.0
00:00 Uhr

01:31:00
1,2
0
9,7
11:40 Uhr

2
3.8
23:25 Uhr
-0.4
07:10 Uhr
2.0
07:30 Uhr
0
00:00 Uhr
0.0
00:00 Uhr
0.0
00:00 Uhr
0.0
00:00 Uhr
13
Zeitraffer
08:11
7.7
15:05 Uhr
3.5
23:50 Uhr

91
12:50 Uhr
82
00:00 Uhr
1020.1
08:40 Uhr

1014.6
23:15 Uhr
1018.1
2,400
12:25 Uhr
0,200
0.152
40
123
10:55 Uhr
0.0
00:00 Uhr

00:01:00
0,6
0
11,3
21:15 Uhr

2
5.5
14:00 Uhr
2.0
23:50 Uhr
3.5
23:50 Uhr
0
00:00 Uhr
0.0
00:00 Uhr
0.0
00:00 Uhr
0.0
00:00 Uhr
14
Zeitraffer
08:13
10.4
14:25 Uhr
3.3
03:20 Uhr

90
00:00 Uhr
67
22:10 Uhr
1014.7
00:00 Uhr

1008.7
11:45 Uhr
1010.3
0,000
00:00 Uhr
0,000
0.356
37
98
12:15 Uhr
0.0
00:00 Uhr

00:00:00
2,7
1
19,3
07:35 Uhr

3
5.2
17:30 Uhr
1.8
03:00 Uhr
2.5
03:10 Uhr
0
00:00 Uhr
0.0
00:00 Uhr
0.0
00:00 Uhr
0.0
00:00 Uhr
15
Zeitraffer
08:15
13.5
13:50 Uhr
8.7
21:55 Uhr

73
04:20 Uhr
56
15:10 Uhr
1017.9
23:55 Uhr

1010.3
00:00 Uhr
1013.1
0,000
00:00 Uhr
0,000
0.686
42
156
11:00 Uhr
0.0
00:00 Uhr

00:08:00
2,0
0
19,3
17:10 Uhr

3
5.9
13:05 Uhr
2.5
19:25 Uhr
8.7
21:55 Uhr
0
00:00 Uhr
0.0
00:00 Uhr
0.0
00:00 Uhr
0.0
00:00 Uhr


 
Wetter Information zur Wetteranzeige
Zeitraffer
Tageslänge (hh:mm)
Höchsttemperatur in °C
Uhrzeit
Tiefsttemperatur in °C
Uhrzeit
Luftfeuchte (max., in %)
Uhrzeit
Luftfeuchte (min., in %)
Uhrzeit
Luftdruck (max., in hPa)
Uhrzeit
Luftdruck (min., in hPa)
Uhrzeit
Luftdruck (Ø, in hPa)
Regenrate (max, mm/h)
Uhrzeit
Niederschlag in mm
Verdunstung in mm
Solar in W/m² (Ø)
Solar in W/m² (max.)
UV-Index (max.)
Sonnenscheindauer (hh:mm)
Windrichtung (Ø)
Windstärke (Ø in km/h)
Windstärke (Ø in bft)
Windböe (max., in km/h)
Uhrzeit
Windböe (max., in bft)
Uhrzeit
Taupunkt (max., in °C)
Uhrzeit
Taupunkt (min., in °C)
Uhrzeit
Windchill (min., in °C)
Uhrzeit
Gewitterindex (max.)
Uhrzeit
Waldbrandindex (max.)
Uhrzeit
Graslandfeuerindex (max.)
Uhrzeit
Staubsturm-Index (max.)
Uhrzeit
16
Zeitraffer
08:17
9.8
14:30 Uhr
4.9
08:50 Uhr

86
08:20 Uhr
53
15:10 Uhr
1028.0
12:20 Uhr

1018.0
00:00 Uhr
1024.8
0,000
00:00 Uhr
0,000
0.152
9
9
08:10 Uhr
0.0
00:00 Uhr

00:00:00
0,6
0
11,3
21:30 Uhr

2
5.9
03:30 Uhr
3.1
07:30 Uhr
0.0
17:40 Uhr
0
00:00 Uhr
0.0
00:00 Uhr
0.3
18:40 Uhr
0.0
00:00 Uhr
17
Zeitraffer
08:20
9.1
14:15 Uhr
2.5
08:20 Uhr

90
08:35 Uhr
68
15:20 Uhr
1025.5
00:00 Uhr

1013.7
20:00 Uhr
1019.0
0,000
00:00 Uhr
0,000
0.457
77
209
11:35 Uhr
0.0
00:00 Uhr

02:41:00
3,0
1
29,0
13:00 Uhr

4
4.1
12:50 Uhr
0.9
07:55 Uhr
1.3
08:55 Uhr
0
00:00 Uhr
0.0
00:00 Uhr
0.0
00:00 Uhr
0.0
00:00 Uhr
18
Zeitraffer
08:23
7.7
14:10 Uhr
4.2
23:35 Uhr

91
02:55 Uhr
69
14:15 Uhr
1024.0
23:50 Uhr

1015.2
00:00 Uhr
1020.4
0,000
00:00 Uhr
0,000
0.356
64
162
11:30 Uhr
0.0
00:00 Uhr

00:31:00
0,2
0
6,4
10:35 Uhr

1
5.6
03:10 Uhr
1.4
22:00 Uhr
4.2
23:35 Uhr
0
00:00 Uhr
0.0
00:00 Uhr
0.0
00:00 Uhr
0.0
00:00 Uhr
19
Zeitraffer
08:25
5.1
13:05 Uhr
3.9
09:20 Uhr

89
08:05 Uhr
82
19:20 Uhr
1040.8
23:55 Uhr

1023.9
00:00 Uhr
1032.3
0,000
00:00 Uhr
0,000
0.127
45
160
12:25 Uhr
0.0
00:00 Uhr

00:01:00
0,1
0
4,8
12:05 Uhr

1
2.7
13:00 Uhr
1.9
00:00 Uhr
3.9
09:20 Uhr
0
00:00 Uhr
0.0
00:00 Uhr
0.0
00:00 Uhr
0.0
00:00 Uhr
20
Zeitraffer
08:28
4.9
01:55 Uhr
0.5
08:25 Uhr

92
07:35 Uhr
82
01:35 Uhr
1045.7
12:10 Uhr

1040.8
00:00 Uhr
1043.8
0,000
00:00 Uhr
0,000
0.152
51
160
10:40 Uhr
0.0
00:00 Uhr

01:30:00
0,1
0
3,2
11:15 Uhr

1
2.5
00:05 Uhr
-0.6
07:30 Uhr
0.5
08:25 Uhr
0
00:00 Uhr
0.0
00:00 Uhr
0.0
00:00 Uhr
0.0
00:00 Uhr
21
Zeitraffer
08:32
6.8
11:55 Uhr
1.3
02:05 Uhr

91
00:00 Uhr
66
12:25 Uhr
1042.8
00:00 Uhr

1033.5
23:55 Uhr
1037.9
0,000
00:00 Uhr
0,000
0.330
82
230
11:45 Uhr
0.0
00:00 Uhr

02:58:00
0,2
0
8,0
09:40 Uhr

2
1.5
15:10 Uhr
-0.2
03:15 Uhr
1.3
02:05 Uhr
0
00:00 Uhr
0.0
00:00 Uhr
0.0
00:00 Uhr
0.0
00:00 Uhr
22
Zeitraffer
08:34
6.2
14:55 Uhr
3.2
00:40 Uhr

95
10:10 Uhr
81
20:25 Uhr
1033.7
23:30 Uhr

1028.9
13:00 Uhr
1030.8
0,000
00:00 Uhr
0,000
0.025
18
54
13:10 Uhr
0.0
00:00 Uhr

00:00:00
0,4
0
8,0
08:15 Uhr

2
5.0
14:30 Uhr
0.8
00:35 Uhr
3.2
00:40 Uhr
0
00:00 Uhr
0.0
00:00 Uhr
0.0
00:00 Uhr
0.0
00:00 Uhr
23
Zeitraffer
08:37
7.1
12:00 Uhr
1.3
03:30 Uhr

93
06:00 Uhr
72
14:45 Uhr
1033.8
00:00 Uhr

1025.9
23:45 Uhr
1030.9
0,000
00:00 Uhr
0,000
0.254
49
237
12:00 Uhr
0.0
00:00 Uhr

00:08:00
0,0
0
3,2
13:35 Uhr

1
3.4
11:45 Uhr
-0.3
03:10 Uhr
1.3
03:30 Uhr
0
00:00 Uhr
0.0
00:00 Uhr
0.0
00:00 Uhr
0.0
00:00 Uhr
24
Zeitraffer
08:40
4.5
14:35 Uhr
-0.6
06:50 Uhr

91
22:25 Uhr
74
11:25 Uhr
1025.8
00:00 Uhr

1018.9
14:20 Uhr
1021.6
0,000
00:00 Uhr
0,000
0.229
81
223
11:40 Uhr
0.0
00:00 Uhr

02:31:00
0,2
0
8,0
14:15 Uhr

2
0.6
14:35 Uhr
-2.1
06:35 Uhr
-0.6
06:50 Uhr
0
00:00 Uhr
0.0
00:00 Uhr
0.0
00:00 Uhr
0.0
00:00 Uhr
25
Zeitraffer
08:44
2.4
16:05 Uhr
0.7
02:20 Uhr

95
05:30 Uhr
91
00:00 Uhr
1021.4
10:40 Uhr

1019.6
04:55 Uhr
1020.4
2,400
06:15 Uhr
0,200
0.000
22
39
12:50 Uhr
0.0
00:00 Uhr

00:00:00
0,2
0
8,0
23:40 Uhr

2
1.6
17:40 Uhr
-0.5
00:00 Uhr
0.7
02:20 Uhr
0
00:00 Uhr
0.0
00:00 Uhr
0.0
00:00 Uhr
0.0
00:00 Uhr
26
Zeitraffer
08:46
1.2
14:30 Uhr
-0.9
04:45 Uhr

95
21:10 Uhr
92
01:45 Uhr
1020.3
00:00 Uhr

1014.5
23:50 Uhr
1017.9
0,000
00:00 Uhr
0,000
0.000
18
36
14:00 Uhr
0.0
00:00 Uhr

00:00:00
0,5
0
12,9
23:25 Uhr

2
0.2
14:30 Uhr
-1.9
04:45 Uhr
-0.9
04:45 Uhr
0
00:00 Uhr
0.0
00:00 Uhr
0.0
00:00 Uhr
0.0
00:00 Uhr
27
Zeitraffer
08:49
9.2
14:35 Uhr
1.0
00:00 Uhr

95
05:25 Uhr
77
14:35 Uhr
1014.6
00:00 Uhr

1000.8
23:45 Uhr
1009.0
2,400
19:05 Uhr
0,800
0.356
75
192
11:20 Uhr
0.0
00:00 Uhr

01:01:00
1,2
0
14,5
22:00 Uhr

3
5.6
13:50 Uhr
0.1
00:00 Uhr
1.0
00:00 Uhr
0
00:00 Uhr
0.0
00:00 Uhr
0.2
14:40 Uhr
0.0
00:00 Uhr
28
Zeitraffer
08:53
9.7
11:30 Uhr
2.9
23:55 Uhr

93
08:15 Uhr
76
12:00 Uhr
1000.6
00:00 Uhr

988.6
14:35 Uhr
992.8
2,400
00:45 Uhr
5,200
0.305
82
273
12:00 Uhr
0.0
00:00 Uhr

01:30:00
1,6
0
17,7
01:20 Uhr

3
6.4
10:50 Uhr
1.3
21:55 Uhr
2.9
23:55 Uhr
0
00:00 Uhr
0.0
00:00 Uhr
0.0
00:00 Uhr
0.0
00:00 Uhr
29
Zeitraffer
08:56
7.1
14:05 Uhr
2.7
00:30 Uhr

92
00:45 Uhr
68
13:55 Uhr
1008.0
23:55 Uhr

993.4
01:20 Uhr
999.3
2,400
00:25 Uhr
0,800
0.254
54
249
12:20 Uhr
0.0
00:00 Uhr

00:11:00
1,2
0
12,9
12:45 Uhr

2
2.8
22:15 Uhr
1.4
00:00 Uhr
2.7
00:30 Uhr
0
00:00 Uhr
0.0
00:00 Uhr
0.0
00:00 Uhr
0.0
00:00 Uhr
30
Zeitraffer
09:00
8.3
14:50 Uhr
3.3
03:15 Uhr

92
09:05 Uhr
78
18:05 Uhr
1008.9
02:35 Uhr

997.9
23:55 Uhr
1004.9
2,400
05:55 Uhr
1,400
0.279
26
55
11:45 Uhr
0.0
00:00 Uhr

00:00:00
1,1
0
14,5
22:20 Uhr

3
5.3
13:55 Uhr
1.1
03:45 Uhr
3.3
03:15 Uhr
0
00:00 Uhr
0.0
00:00 Uhr
0.0
00:00 Uhr
0.0
00:00 Uhr
31
Zeitraffer
09:03
11.5
11:40 Uhr
5.6
00:00 Uhr

95
03:40 Uhr
69
12:00 Uhr
1005.3
18:25 Uhr

995.3
03:30 Uhr
1001.5
2,400
03:35 Uhr
0,400
0.457
68
315
11:35 Uhr
0.0
00:00 Uhr

00:39:00
1,0
0
11,3
08:20 Uhr

2
8.5
05:50 Uhr
4.3
00:00 Uhr
5.6
00:00 Uhr
0
00:00 Uhr
0.0
00:00 Uhr
0.0
00:00 Uhr
0.0
00:00 Uhr
Stationsstandorte || Wetterblog || Wissenswertes || Downloads || Seitenhistorie || Partner || Impressum / Datenschutz